Вернуться в каталог

FENGYUN 1C DEB

АктивенSSO
NORAD 31191·DEBRIS·🇨🇳 China

Запущен May 10, 1999 с Taiyuan Satellite Launch Center

Loading…

Ближайшие Пролёты (ближайшие 24 часа)

TLE

СвежийSource: Space-Track

Эпоха: Sep 14, 2026, 13:26 UTC

1 31191U 99025BJV 26257.55982663  .00000675  00000-0  21219-3 0  9992
2 31191  98.7659 170.7710 0093196  93.7793 267.4057 14.41370483 19657

Отслеживайте FENGYUN 1C DEB в реальном времени с AllMySat

Download on the App Store